Location: �quirre
(50.4736°N, 2.2351°E)
Time: 16:17:48
(UTC+00:00)

Cosmos 1674 - Pass Details

Date: 07 August 2020
Orbit: 495 x 517 km, 82.5° (Epoch: 19 September)

Event Time Altitude Azimuth Distance (km) Brightness Sun altitude
Rises 01:33:18 0° 349° (N) 2,596 7.1 -19.9°
Reaches altitude 10° 01:35:25 10° 349° (N) 1,708 6.1 -19.8°
Maximum altitude 01:39:10 87° 262° (W) 505 2.5 -19.5°
Enters shadow 01:39:50 58° 176° (S) 585 2.6 -19.5°
